Location: Boiro
(42.6475°N, 8.8834°W)
Time: 17:32:13
(UTC+01:00)

Tiros 1 - Pass Details

Date: 11 December 2021
Orbit: 630 x 663 km, 48.4° (Epoch: 20 January)

Event Time Altitude Azimuth Distance (km) Brightness Sun altitude
Rises 19:20:21 0° 272° (W) 2,915 11.9 -13.9°
Reaches altitude 10° 19:22:46 10° 279° (W) 2,011 10.7 -14.3°
Maximum altitude 19:27:11 43° 352° (N) 894 7.8 -15.1°
Enters shadow 19:29:33 24° 50° (NE) 1,319 8.2 -15.5°
Drops below altitude 10° 19:31:38 10° 64° (ENE) 2,029 - -15.8°
Sets 19:34:05 0° 71° (ENE) 2,945 - -16.3°
